This is the latest recevied weather packets stored in our database for station/object IA5FYI-13. If no packets are shown the sender has not sent any weather packets the latest 1 day(s).
| Time | Temp. | Humidity | Pressure | Rain* | Wind** | Luminosity | Snow |
|---|---|---|---|---|---|---|---|
| 1778016625 | 17.78° C | 93% | 1010.8 hPa | 2.54 mm | 4.92 m/s, 132° | - | - |
| 1778016309 | 17.78° C | 93% | 1010.8 hPa | 2.54 mm | 6.26 m/s, 134° | - | - |
| 1778016012 | 17.78° C | 93% | 1010.8 hPa | 2.54 mm | 7.15 m/s, 139° | - | - |
| 1778015712 | 17.78° C | 93% | 1011.2 hPa | 2.03 mm | 3.58 m/s, 72° | - | - |
| 1778015413 | 17.78° C | 93% | 1010.8 hPa | 0.25 mm | 6.26 m/s, 166° | - | - |
| 1778015110 | 17.78° C | 93% | 1011.2 hPa | 0 mm | 3.13 m/s, 139° | - | - |
| 1778014509 | 17.78° C | 93% | 1011.2 hPa | 8.38 mm | 5.81 m/s, 142° | - | - |
| 1778014213 | 17.78° C | 93% | 1011.2 hPa | 7.62 mm | 7.15 m/s, 123° | - | - |
| 1778013613 | 17.78° C | 93% | 1010.8 hPa | 7.62 mm | 6.26 m/s, 159° | - | - |
| 1778013310 | 17.78° C | 92% | 1011.2 hPa | 7.62 mm | 7.6 m/s, 150° | - | - |
| 1778013026 | 17.78° C | 92% | 1011.2 hPa | 6.86 mm | 6.71 m/s, 150° | - | - |
| 1778012709 | 17.78° C | 92% | 1010.8 hPa | 5.33 mm | 6.71 m/s, 130° | - | - |
| 1778012412 | 17.78° C | 92% | 1011.2 hPa | 4.32 mm | 4.92 m/s, 281° | - | - |
| 1778011813 | 17.78° C | 91% | 1011.2 hPa | 1.27 mm | 4.92 m/s, 129° | - | - |
| 1778011509 | 17.78° C | 91% | 1011.2 hPa | 1.02 mm | 8.49 m/s, 158° | - | - |
| 1778011233 | 17.78° C | 91% | 1011.2 hPa | 7.11 mm | 7.6 m/s, 175° | - | - |
| 1778010909 | 17.78° C | 91% | 1011.2 hPa | 6.86 mm | 5.81 m/s, 144° | - | - |
| 1778010613 | 17.78° C | 91% | 1011.2 hPa | 5.84 mm | 7.15 m/s, 169° | - | - |
| 1778010313 | 17.78° C | 91% | 1011.2 hPa | 4.32 mm | 6.26 m/s, 129° | - | - |
| 1778010013 | 17.78° C | 91% | 1011.2 hPa | 2.29 mm | 8.49 m/s, 143° | - | - |
| 1778009709 | 17.78° C | 91% | 1011.2 hPa | 1.02 mm | 7.6 m/s, 166° | - | - |
| 1778009423 | 17.78° C | 91% | 1011.2 hPa | 0 mm | 5.81 m/s, 148° | - | - |
| 1778009110 | 17.78° C | 91% | 1011.2 hPa | 0 mm | 4.92 m/s, 144° | - | - |
| 1778008814 | 17.78° C | 91% | 1011.2 hPa | 0 mm | 4.02 m/s, 148° | - | - |
| 1778008513 | 17.78° C | 91% | 1011.2 hPa | 0 mm | 5.36 m/s, 173° | - | - |
* Rain latest hour (hover to see other rain measurements)
** Current wind speed in m/s (hover to see current wind gust speed)